FW9025 Weather Reports


time (UTC)temp
F
wind
direction
speed
knots
gust
knots
rain 1hr
in
rain 24hr
in
rain mn
in
humidity
%
barometer
mb
20260502211051 65 303 0.9 3.5 0.00 0.00 0.00 24 1021.1
20260502210555 66 126 1.7 3.5 0.00 0.00 0.00 23 1021.1
20260502210108 66 274 1.7 5.2 0.00 0.00 0.00 22 1021.0
20260502205555 66 305 0.9 5.2 0.00 0.00 0.00 24 1021.1
20260502205053 68 254 0.9 5.2 0.00 0.00 0.00 22 1021.2
20260502204554 66 353 1.7 5.2 0.00 0.00 0.00 22 1021.2
20260502204051 66 180 0.9 4.3 0.00 0.00 0.00 25 1021.3
20260502203553 67 303 0.9 5.2 0.00 0.00 0.00 24 1021.3
20260502203058 67 3 0.9 5.2 0.00 0.00 0.00 24 1021.4
20260502202551 66 205 0.9 5.2 0.00 0.00 0.00 29 1021.4
20260502202052 65 171 1.7 5.2 0.00 0.00 0.00 25 1021.4
20260502201554 65 265 1.7 5.2 0.00 0.00 0.00 23 1021.5
20260502201053 67 359 1.7 6.1 0.00 0.00 0.00 26 1021.4
20260502200555 66 26 1.7 6.1 0.00 0.00 0.00 27 1021.5
20260502200121 64 312 1.7 6.1 0.00 0.00 0.00 28 1021.5
20260502195551 63 16 0.9 4.3 0.00 0.00 0.00 28 1021.6
20260502195054 64 229 0.0 6.1 0.00 0.00 0.00 24 1021.8
20260502194605 64 59 0.9 6.1 0.00 0.00 0.00 24 1021.8
20260502194051 65 43 1.7 4.3 0.00 0.00 0.00 27 1021.8
20260502193553 65 263 1.7 4.3 0.00 0.00 0.00 25 1022.0
20260502193054 66 263 1.7 4.3 0.00 0.00 0.00 27 1021.9
20260502192551 65 348 4.3 4.3 0.00 0.00 0.00 24 1022.0
20260502192051 64 0.0 0.0 0.00 0.00 0.00 28 1022.1
20260502191601 65 0.0 0.0 0.00 0.00 0.00 27 1022.2
20260502191053 63 0.0 0.0 0.00 0.00 0.00 26 1022.2
20260502190554 63 0.0 0.0 0.00 0.00 0.00 26 1022.3
20260502190058 63 0.0 0.0 0.00 0.00 0.00 24 1022.4
20260502185553 62 0.0 0.0 0.00 0.00 0.00 27 1022.4
20260502185052 61 0.0 0.0 0.00 0.00 0.00 27 1022.5
20260502184555 64 0.0 0.0 0.00 0.00 0.00 26 1022.5
20260502184052 62 0.0 0.0 0.00 0.00 0.00 26 1022.7
20260502183552 61 0.0 0.0 0.00 0.00 0.00 26 1022.7
20260502183100 60 0.0 0.0 0.00 0.00 0.00 27 1022.8
20260502182552 62 0.0 0.0 0.00 0.00 0.00 26 1022.7
20260502182050 63 0.0 0.0 0.00 0.00 0.00 27 1022.9
20260502181553 61 0.0 0.0 0.00 0.00 0.00 27 1022.9
20260502181053 61 0.0 0.0 0.00 0.00 0.00 26 1023.0
20260502180554 60 0.0 0.0 0.00 0.00 0.00 27 1023.0
20260502164053 55 0.0 0.0 0.00 0.00 0.00 32 1024.0
20260502163550 53 0.0 0.0 0.00 0.00 0.00 34 1024.0
20260502163100 54 0.0 0.0 0.00 0.00 0.00 33 1024.1
20260502162550 54 0.0 0.0 0.00 0.00 0.00 36 1024.1
20260502162052 53 0.0 0.0 0.00 0.00 0.00 35 1024.1
20260502161604 52 0.0 0.0 0.00 0.00 0.00 37 1024.0
20260502161053 53 0.0 0.0 0.00 0.00 0.00 38 1024.0
20260502160552 51 0.0 0.0 0.00 0.00 0.00 35 1024.1
20260502152050 47 0.0 0.0 0.00 0.00 0.00 43 1024.3
20260502151611 47 0.0 0.0 0.00 0.00 0.00 46 1024.3
20260502151052 45 0.0 0.0 0.00 0.00 0.00 50 1024.3
20260502150550 44 0.0 0.0 0.00 0.00 0.00 50 1024.3
20260502130554 24 0.0 0.0 0.00 0.00 0.00 83 1024.5
20260502130105 24 0.0 0.0 0.00 0.00 0.00 84 1024.5
20260502123550 23 0.0 0.0 0.00 0.00 0.00 84 1024.3
20260502123052 24 0.0 0.0 0.00 0.00 0.00 82 1024.4
20260502122551 24 0.0 0.0 0.00 0.00 0.00 83 1024.4
20260502122051 23 0.0 0.0 0.00 0.00 0.00 84 1024.4
20260502121556 23 0.0 0.0 0.00 0.00 0.00 83 1024.4
20260502121128 24 0.0 0.0 0.00 0.00 0.00 80 1024.4
20260502120551 25 0.0 0.0 0.00 0.00 0.00 81 1024.4
20260502115553 24 0.0 0.0 0.00 0.00 0.00 81 1024.4
20260502115053 25 0.0 0.0 0.00 0.00 0.00 79 1024.3
20260502114559 25 0.0 0.0 0.00 0.00 0.00 80 1024.4
20260502114053 25 0.0 0.0 0.00 0.00 0.00 79 1024.4
20260502113553 25 0.0 0.0 0.00 0.00 0.00 79 1024.4
20260502113056 25 0.0 0.0 0.00 0.00 0.00 80 1024.5
20260502112550 25 0.0 0.0 0.00 0.00 0.00 82 1024.6
20260502112050 24 0.0 0.0 0.00 0.00 0.00 81 1024.5
20260502111603 25 0.0 0.0 0.00 0.00 0.00 80 1024.5
20260502111050 25 0.0 0.0 0.00 0.00 0.00 81 1024.5
20260502110550 25 0.0 0.0 0.00 0.00 0.00 82 1024.5
20260502105551 25 0.0 0.0 0.00 0.00 0.00 80 1024.5
20260502105053 25 0.0 0.0 0.00 0.00 0.00 78 1024.6
20260502104555 26 0.0 0.0 0.00 0.00 0.00 80 1024.5
20260502104053 26 0.0 0.0 0.00 0.00 0.00 79 1024.5
20260502103553 26 0.0 0.0 0.00 0.00 0.00 78 1024.6
20260502103105 26 0.0 0.0 0.00 0.00 0.00 78 1024.6
20260502102552 26 0.0 0.0 0.00 0.00 0.00 78 1024.6
20260502102051 26 0.0 0.0 0.00 0.00 0.00 78 1024.5
20260502101603 26 0.0 0.0 0.00 0.00 0.00 78 1024.5
20260502101053 26 0.0 0.0 0.00 0.00 0.00 78 1024.3
20260502100553 26 0.0 0.0 0.00 0.00 0.00 80 1024.4
20260502091051 27 0.0 0.0 0.00 0.00 0.00 78 1024.0
20260502090553 27 0.0 0.0 0.00 0.00 0.00 77 1024.0
20260502090114 28 0.0 0.0 0.00 0.00 0.00 77 1024.0
20260502071052 29 0.0 0.0 0.00 0.00 0.00 74 1024.1
20260502070553 29 0.0 0.0 0.00 0.00 0.00 73 1024.2
20260502070106 29 0.0 0.0 0.00 0.00 0.00 75 1024.0
20260502065553 28 0.0 0.0 0.00 0.00 0.00 75 1024.0
20260502065054 29 0.0 0.0 0.00 0.00 0.00 73 1023.9
20260502064620 30 0.0 0.0 0.00 0.00 0.00 73 1023.9
20260502064050 30 0.0 0.0 0.00 0.00 0.00 72 1023.9
20260502063550 30 0.0 0.0 0.00 0.00 0.00 74 1023.9
20260502063054 29 0.0 0.0 0.00 0.00 0.00 72 1023.8
20260502062552 30 0.0 0.0 0.00 0.00 0.00 72 1023.9
20260502062053 30 0.0 0.0 0.00 0.00 0.00 72 1023.8
20260502061554 31 0.0 0.0 0.00 0.00 0.00 70 1023.8
20260502061053 31 0.0 0.0 0.00 0.00 0.00 69 1023.6
20260502060553 31 0.0 0.0 0.00 0.00 0.00 68 1023.6
20260502060055 32 0.0 0.0 0.00 0.00 0.00 70 1023.6
20260502055551 31 0.0 0.0 0.00 0.00 0.00 71 1023.6
20260502055051 31 0.0 0.0 0.00 0.00 0.00 72 1023.6
20260502054557 32 0.0 0.0 0.00 0.00 0.00 69 1023.5
20260502054053 33 0.0 0.0 0.00 0.00 0.00 68 1023.6
20260502053553 33 0.0 0.0 0.00 0.00 0.00 69 1023.5
20260502053055 33 0.0 0.0 0.00 0.00 0.00 67 1023.5
20260502052550 33 0.0 0.0 0.00 0.00 0.00 68 1023.5
20260502052056 33 0.0 0.0 0.00 0.00 0.00 66 1023.6
20260502051554 34 0.0 0.0 0.00 0.00 0.00 65 1023.6
20260502051053 34 0.0 0.0 0.00 0.00 0.00 65 1023.6
20260502050553 34 0.0 0.0 0.00 0.00 0.00 65 1023.5
20260502050055 34 0.0 0.0 0.00 0.00 0.00 65 1023.6
20260502045553 34 0.0 0.0 0.00 0.00 0.00 68 1023.6
20260502045051 35 0.0 0.0 0.00 0.00 0.00 64 1023.6
20260502044556 35 0.0 0.0 0.00 0.00 0.00 66 1023.5
20260502044050 34 0.0 0.0 0.00 0.00 0.00 67 1023.5
20260502043550 35 0.0 0.0 0.00 0.00 0.00 67 1023.4
20260502043052 36 0.0 0.0 0.00 0.00 0.00 64 1023.3
20260502042550 36 0.0 0.0 0.00 0.00 0.00 65 1023.2
20260502042052 36 0.0 0.0 0.00 0.00 0.00 61 1023.2
20260502041558 36 0.0 0.0 0.00 0.00 0.00 61 1023.3
20260502041052 37 0.0 0.0 0.00 0.00 0.00 60 1023.3
20260502040555 37 0.0 0.0 0.00 0.00 0.00 62 1023.2
20260502040056 38 0.0 0.0 0.00 0.00 0.00 59 1023.1
20260502035551 38 0.0 0.0 0.00 0.00 0.00 62 1023.0
20260502035052 38 0.0 0.0 0.00 0.00 0.00 57 1023.1
20260502034553 39 0.0 0.0 0.00 0.00 0.00 57 1022.9
20260502034051 39 0.0 0.0 0.00 0.00 0.00 59 1022.9
20260502033550 39 0.0 0.0 0.00 0.00 0.00 61 1022.8
20260502033101 40 0.0 0.0 0.00 0.00 0.00 59 1022.7
20260502032550 41 0.0 0.0 0.00 0.00 0.00 53 1022.7
20260502032055 41 0.0 0.0 0.00 0.00 0.00 55 1022.6
20260502031601 40 0.0 0.0 0.00 0.00 0.00 55 1022.5
20260502031053 42 0.0 0.0 0.00 0.00 0.00 55 1022.4
20260502030553 43 0.0 0.0 0.00 0.00 0.00 49 1022.3
20260502030057 43 0.0 0.0 0.00 0.00 0.00 48 1022.2
20260502025553 43 0.0 0.0 0.00 0.00 0.00 54 1022.1
20260502025053 44 0.0 0.0 0.00 0.00 0.00 46 1022.0
20260502024607 44 0.0 0.0 0.00 0.00 0.00 46 1021.9
20260502024053 45 0.0 0.0 0.00 0.00 0.00 42 1021.9
20260502023551 45 0.0 0.0 0.00 0.00 0.00 41 1021.9
20260502023112 46 0.0 0.0 0.00 0.00 0.00 39 1021.8
20260502022554 47 0.0 0.0 0.00 0.00 0.00 42 1021.7
20260502022050 47 0.0 0.0 0.00 0.00 0.00 39 1021.6
20260502021553 48 0.0 0.0 0.00 0.00 0.00 36 1021.6
20260502021053 48 0.0 0.0 0.00 0.00 0.00 36 1021.6
20260502020554 49 0.0 0.0 0.00 0.00 0.00 36 1021.6
20260502020059 49 0.0 0.0 0.00 0.00 0.00 37 1021.6
20260502015550 50 0.0 0.0 0.00 0.00 0.00 35 1021.6
20260502015051 51 0.0 0.0 0.00 0.00 0.00 34 1021.5
20260502014554 51 0.0 0.0 0.00 0.00 0.00 34 1021.4
20260502014050 52 0.0 0.0 0.00 0.00 0.00 34 1021.4
20260502013553 52 0.0 0.0 0.00 0.00 0.00 36 1021.4
20260502013057 53 0.0 0.0 0.00 0.00 0.00 34 1021.4
20260502012557 54 0.0 0.0 0.00 0.00 0.00 32 1021.4
20260502012054 54 0.0 0.0 0.00 0.00 0.00 31 1021.4
20260502011553 54 0.0 0.0 0.00 0.00 0.00 28 1021.3
20260502011053 54 0.0 0.0 0.00 0.00 0.00 28 1021.3
20260502010553 54 0.0 0.0 0.00 0.00 0.00 28 1021.3
20260502010056 55 0.0 0.0 0.00 0.00 0.00 27 1021.3
20260502005550 55 0.0 0.0 0.00 0.00 0.00 27 1021.4
20260502005053 55 0.0 0.0 0.00 0.00 0.00 26 1021.3
20260502004552 55 0.0 0.0 0.00 0.00 0.00 24 1021.4
20260502004052 56 0.0 0.0 0.00 0.00 0.00 22 1021.3
20260502003550 56 0.0 0.0 0.00 0.00 0.00 26 1021.4
20260502003055 56 0.0 0.0 0.00 0.00 0.00 26 1021.4
20260502002558 56 0.0 0.0 0.00 0.00 0.00 25 1021.3
20260502002053 56 0.0 0.0 0.00 0.00 0.00 20 1021.4
20260502001624 56 0.0 0.0 0.00 0.00 0.00 20 1021.4
20260502001050 56 0.0 0.0 0.00 0.00 0.00 24 1021.4
20260502000553 57 0.0 0.0 0.00 0.00 0.00 21 1021.4
20260502000118 57 0.0 0.0 0.00 0.00 0.00 21 1021.5
20260501235557 57 0.0 0.0 0.00 0.00 0.00 22 1021.4
20260501235053 57 0.0 0.0 0.00 0.00 0.00 21 1021.4
20260501234554 57 0.0 0.0 0.00 0.00 0.00 19 1021.5
20260501234051 58 0.0 0.0 0.00 0.00 0.00 24 1021.4
20260501233553 58 0.0 0.0 0.00 0.00 0.00 22 1021.4
20260501233054 58 0.0 0.0 0.00 0.00 0.00 20 1021.3
20260501232552 58 0.0 0.0 0.00 0.00 0.00 21 1021.4
20260501232053 58 0.0 0.0 0.00 0.00 0.00 22 1021.4
20260501231554 58 0.0 0.0 0.00 0.00 0.00 23 1021.3
20260501231053 58 0.0 0.0 0.00 0.00 0.00 20 1021.3
20260501230553 58 0.0 0.0 0.00 0.00 0.00 23 1021.4
20260501230057 58 0.0 0.0 0.00 0.00 0.00 22 1021.4
20260501225556 58 0.0 0.0 0.00 0.00 0.00 21 1021.5
20260501225052 58 0.0 0.0 0.00 0.00 0.00 21 1021.6
20260501224613 58 0.0 0.0 0.00 0.00 0.00 21 1021.6
20260501224053 57 0.0 0.0 0.00 0.00 0.00 20 1021.5
20260501223553 57 0.0 0.0 0.00 0.00 0.00 21 1021.6
20260501223058 57 0.0 0.0 0.00 0.00 0.00 18 1021.7
20260501222557 59 0.0 0.0 0.00 0.00 0.00 20 1021.7
20260501222053 59 0.0 0.0 0.00 0.00 0.00 19 1021.7
20260501221555 60 0.0 0.0 0.00 0.00 0.00 21 1021.8
20260501221053 60 0.0 0.0 0.00 0.00 0.00 17 1021.8
20260501220550 59 0.0 0.0 0.00 0.00 0.00 17 1021.9
20260501220059 60 0.0 0.0 0.00 0.00 0.00 18 1021.9
20260501215554 60 0.0 0.0 0.00 0.00 0.00 21 1022.1
20260501215054 60 0.0 0.0 0.00 0.00 0.00 21 1022.1
20260501214558 60 0.0 0.0 0.00 0.00 0.00 20 1022.1
20260501214054 61 0.0 0.0 0.00 0.00 0.00 21 1022.1
20260501213553 61 0.0 0.0 0.00 0.00 0.00 24 1022.2
20260501213058 62 0.0 0.0 0.00 0.00 0.00 21 1022.3
20260501212553 62 0.0 0.0 0.00 0.00 0.00 23 1022.2
20260501212053 61 0.0 0.0 0.00 0.00 0.00 21 1022.1
20260501211557 62 0.0 0.0 0.00 0.00 0.00 22 1022.3